Year,Month,Day,Hour,Minute,Value (Times are PST for windspeed in km/hr)
2010,11,09,00,00,0.00
2010,11,09,00,01,0.00
2010,11,09,00,02,0.00
2010,11,09,00,03,0.00
2010,11,09,00,04,0.00
2010,11,09,00,05,0.00
2010,11,09,00,06,0.00
2010,11,09,00,07,0.00
2010,11,09,00,08,0.00
2010,11,09,00,09,0.00
2010,11,09,00,10,0.00
2010,11,09,00,11,0.00
2010,11,09,00,12,0.00
2010,11,09,00,13,0.00
2010,11,09,00,14,0.00
2010,11,09,00,15,0.00
2010,11,09,00,16,0.00
2010,11,09,00,17,0.00
2010,11,09,00,18,0.00
2010,11,09,00,19,0.00
2010,11,09,00,20,0.00
2010,11,09,00,21,0.00
2010,11,09,00,22,0.00
2010,11,09,00,23,0.00
2010,11,09,00,24,0.00
2010,11,09,00,25,0.00
2010,11,09,00,26,0.00
2010,11,09,00,27,0.00
2010,11,09,00,28,0.00
2010,11,09,00,29,0.00
2010,11,09,00,30,0.00
2010,11,09,00,31,0.00
2010,11,09,00,32,0.00
2010,11,09,00,33,0.00
2010,11,09,00,34,0.00
2010,11,09,00,35,0.00
2010,11,09,00,36,0.00
2010,11,09,00,37,0.00
2010,11,09,00,38,0.00
2010,11,09,00,39,0.00
2010,11,09,00,40,0.00
2010,11,09,00,41,0.00
2010,11,09,00,42,0.00
2010,11,09,00,43,0.00
2010,11,09,00,44,0.00
2010,11,09,00,45,0.00
2010,11,09,00,46,0.00
2010,11,09,00,47,0.00
2010,11,09,00,48,0.00
2010,11,09,00,49,0.00
2010,11,09,00,50,0.00
2010,11,09,00,51,0.00
2010,11,09,00,52,0.00
2010,11,09,00,53,0.00
2010,11,09,00,54,0.00
2010,11,09,00,55,0.00
2010,11,09,00,56,0.00
2010,11,09,00,57,0.00
2010,11,09,00,58,0.00
2010,11,09,00,59,0.00
2010,11,09,01,00,0.00
2010,11,09,01,01,0.00
2010,11,09,01,02,0.00
2010,11,09,01,03,0.00
2010,11,09,01,04,0.00
2010,11,09,01,05,0.00
2010,11,09,01,06,0.00
2010,11,09,01,07,0.00
2010,11,09,01,08,0.00
2010,11,09,01,09,0.00
2010,11,09,01,10,0.00
2010,11,09,01,11,0.00
2010,11,09,01,12,0.00
2010,11,09,01,13,0.00
2010,11,09,01,14,0.00
2010,11,09,01,15,0.00
2010,11,09,01,16,0.00
2010,11,09,01,17,0.00
2010,11,09,01,18,0.00
2010,11,09,01,19,0.00
2010,11,09,01,20,0.00
2010,11,09,01,21,0.00
2010,11,09,01,22,0.00
2010,11,09,01,23,0.00
2010,11,09,01,24,0.00
2010,11,09,01,25,0.00
2010,11,09,01,26,0.00
2010,11,09,01,27,0.00
2010,11,09,01,28,0.00
2010,11,09,01,29,0.00
2010,11,09,01,30,0.00
2010,11,09,01,31,0.00
2010,11,09,01,32,0.00
2010,11,09,01,33,0.00
2010,11,09,01,34,0.00
2010,11,09,01,35,0.00
2010,11,09,01,36,0.00
2010,11,09,01,37,0.00
2010,11,09,01,38,0.00
2010,11,09,01,39,0.00
2010,11,09,01,40,0.00
2010,11,09,01,41,0.00
2010,11,09,01,42,0.00
2010,11,09,01,43,0.00
2010,11,09,01,44,0.00
2010,11,09,01,45,0.00
2010,11,09,01,46,0.00
2010,11,09,01,47,0.00
2010,11,09,01,48,0.00
2010,11,09,01,49,0.00
2010,11,09,01,50,0.00
2010,11,09,01,51,0.00
2010,11,09,01,52,0.00
2010,11,09,01,53,0.00
2010,11,09,01,54,0.00
2010,11,09,01,55,0.00
2010,11,09,01,56,0.00
2010,11,09,01,57,0.00
2010,11,09,01,58,0.00
2010,11,09,01,59,0.00
2010,11,09,02,00,0.00
2010,11,09,02,01,0.00
2010,11,09,02,02,0.00
2010,11,09,02,03,0.00
2010,11,09,02,04,0.00
2010,11,09,02,05,0.00
2010,11,09,02,06,0.00
2010,11,09,02,07,0.00
2010,11,09,02,08,0.00
2010,11,09,02,09,0.00
2010,11,09,02,10,0.00
2010,11,09,02,11,0.00
2010,11,09,02,12,0.00
2010,11,09,02,13,0.00
2010,11,09,02,14,0.00
2010,11,09,02,15,0.00
2010,11,09,02,16,0.00
2010,11,09,02,17,0.00
2010,11,09,02,18,0.00
2010,11,09,02,19,0.00
2010,11,09,02,20,0.00
2010,11,09,02,21,0.00
2010,11,09,02,22,0.00
2010,11,09,02,23,0.00
2010,11,09,02,24,0.00
2010,11,09,02,25,0.00
2010,11,09,02,26,0.00
2010,11,09,02,27,0.00
2010,11,09,02,28,0.00
2010,11,09,02,29,0.00
2010,11,09,02,30,0.00
2010,11,09,02,31,0.00
2010,11,09,02,32,0.00
2010,11,09,02,33,0.00
2010,11,09,02,34,0.00
2010,11,09,02,35,0.00
2010,11,09,02,36,0.00
2010,11,09,02,37,0.00
2010,11,09,02,38,0.00
2010,11,09,02,39,0.00
2010,11,09,02,40,0.00
2010,11,09,02,41,0.00
2010,11,09,02,42,0.00
2010,11,09,02,43,0.00
2010,11,09,02,44,0.00
2010,11,09,02,45,0.00
2010,11,09,02,46,0.00
2010,11,09,02,47,0.00
2010,11,09,02,48,0.00
2010,11,09,02,49,0.00
2010,11,09,02,50,0.00
2010,11,09,02,51,0.00
2010,11,09,02,52,0.00
2010,11,09,02,53,0.00
2010,11,09,02,54,0.00
2010,11,09,02,55,0.00
2010,11,09,02,56,0.00
2010,11,09,02,57,0.00
2010,11,09,02,58,0.00
2010,11,09,02,59,0.00
2010,11,09,03,00,0.00
2010,11,09,03,01,0.00
2010,11,09,03,02,0.00
2010,11,09,03,03,0.00
2010,11,09,03,04,0.00
2010,11,09,03,05,0.00
2010,11,09,03,06,0.00
2010,11,09,03,07,0.00
2010,11,09,03,08,0.00
2010,11,09,03,09,0.00
2010,11,09,03,10,0.00
2010,11,09,03,11,0.00
2010,11,09,03,12,0.00
2010,11,09,03,13,0.00
2010,11,09,03,14,0.00
2010,11,09,03,15,0.00
2010,11,09,03,16,0.00
2010,11,09,03,17,0.00
2010,11,09,03,18,0.00
2010,11,09,03,19,0.00
2010,11,09,03,20,0.00
2010,11,09,03,21,0.00
2010,11,09,03,22,0.00
2010,11,09,03,23,0.00
2010,11,09,03,24,0.00
2010,11,09,03,25,0.00
2010,11,09,03,26,0.00
2010,11,09,03,27,0.00
2010,11,09,03,28,0.00
2010,11,09,03,29,0.00
2010,11,09,03,30,0.00
2010,11,09,03,31,0.00
2010,11,09,03,32,0.00
2010,11,09,03,33,0.00
2010,11,09,03,34,0.00
2010,11,09,03,35,0.00
2010,11,09,03,36,0.00
2010,11,09,03,37,0.00
2010,11,09,03,38,0.00
2010,11,09,03,39,0.00
2010,11,09,03,40,0.00
2010,11,09,03,41,0.00
2010,11,09,03,42,0.00
2010,11,09,03,43,0.00
2010,11,09,03,44,0.00
2010,11,09,03,45,0.00
2010,11,09,03,46,0.00
2010,11,09,03,47,0.00
2010,11,09,03,48,0.00
2010,11,09,03,49,0.00
2010,11,09,03,50,0.00
2010,11,09,03,51,0.00
2010,11,09,03,52,0.00
2010,11,09,03,53,0.00
2010,11,09,03,54,0.00
2010,11,09,03,55,0.00
2010,11,09,03,56,0.00
2010,11,09,03,57,0.00
2010,11,09,03,58,0.00
2010,11,09,03,59,0.00
2010,11,09,04,00,0.00
2010,11,09,04,01,0.00
2010,11,09,04,02,0.00
2010,11,09,04,03,0.00
2010,11,09,04,04,0.00
2010,11,09,04,05,0.00
2010,11,09,04,06,0.00
2010,11,09,04,07,0.00
2010,11,09,04,08,0.00
2010,11,09,04,09,0.00
2010,11,09,04,10,0.00
2010,11,09,04,11,0.00
2010,11,09,04,12,0.00
2010,11,09,04,13,0.00
2010,11,09,04,14,0.00
2010,11,09,04,15,0.00
2010,11,09,04,16,0.00
2010,11,09,04,17,0.00
2010,11,09,04,18,0.00
2010,11,09,04,19,0.00
2010,11,09,04,20,0.00
2010,11,09,04,21,0.00
2010,11,09,04,22,0.00
2010,11,09,04,23,0.00
2010,11,09,04,24,0.00
2010,11,09,04,25,0.00
2010,11,09,04,26,0.00
2010,11,09,04,27,0.00
2010,11,09,04,28,0.00
2010,11,09,04,29,0.00
2010,11,09,04,30,0.00
2010,11,09,04,31,0.00
2010,11,09,04,32,0.00
2010,11,09,04,33,0.00
2010,11,09,04,34,0.00
2010,11,09,04,35,0.00
2010,11,09,04,36,0.00
2010,11,09,04,37,0.00
2010,11,09,04,38,0.00
2010,11,09,04,39,0.00
2010,11,09,04,40,0.00
2010,11,09,04,41,0.00
2010,11,09,04,42,0.00
2010,11,09,04,43,0.00
2010,11,09,04,44,0.00
2010,11,09,04,45,0.00
2010,11,09,04,46,0.00
2010,11,09,04,47,0.00
2010,11,09,04,48,0.00
2010,11,09,04,49,0.00
2010,11,09,04,50,0.00
2010,11,09,04,51,0.00
2010,11,09,04,52,0.00
2010,11,09,04,53,0.00
2010,11,09,04,54,0.00
2010,11,09,04,55,0.00
2010,11,09,04,56,0.00
2010,11,09,04,57,0.50
2010,11,09,04,58,0.80
2010,11,09,04,59,0.00
2010,11,09,05,00,0.00
2010,11,09,05,01,0.30
2010,11,09,05,02,0.90
2010,11,09,05,03,0.00
2010,11,09,05,04,3.40
2010,11,09,05,05,3.20
2010,11,09,05,06,0.80
2010,11,09,05,07,0.80
2010,11,09,05,08,1.40
2010,11,09,05,09,4.30
2010,11,09,05,10,5.20
2010,11,09,05,11,7.40
2010,11,09,05,12,6.80
2010,11,09,05,13,6.90
2010,11,09,05,14,7.80
2010,11,09,05,15,11.40
2010,11,09,05,16,9.00
2010,11,09,05,17,8.10
2010,11,09,05,18,9.20
2010,11,09,05,19,11.70
2010,11,09,05,20,7.90
2010,11,09,05,21,5.90
2010,11,09,05,22,6.30
2010,11,09,05,23,8.10
2010,11,09,05,24,7.60
2010,11,09,05,25,6.10
2010,11,09,05,26,5.30
2010,11,09,05,27,6.00
2010,11,09,05,28,5.00
2010,11,09,05,29,1.30
2010,11,09,05,30,1.80
2010,11,09,05,31,3.10
2010,11,09,05,32,2.20
2010,11,09,05,33,2.10
2010,11,09,05,34,2.70
2010,11,09,05,35,0.40
2010,11,09,05,36,5.40
2010,11,09,05,37,4.00
2010,11,09,05,38,3.20
2010,11,09,05,39,3.10
2010,11,09,05,40,6.90
2010,11,09,05,41,7.90
2010,11,09,05,42,5.60
2010,11,09,05,43,8.60
2010,11,09,05,44,5.00
2010,11,09,05,45,7.40
2010,11,09,05,46,9.50
2010,11,09,05,47,12.30
2010,11,09,05,48,12.80
2010,11,09,05,49,11.90
2010,11,09,05,50,13.40
2010,11,09,05,51,16.40
2010,11,09,05,52,13.50
2010,11,09,05,53,12.10
2010,11,09,05,54,12.70
2010,11,09,05,55,16.90
2010,11,09,05,56,10.20
2010,11,09,05,57,17.30
2010,11,09,05,58,14.60
2010,11,09,05,59,16.20
2010,11,09,06,00,11.50
2010,11,09,06,01,17.50
2010,11,09,06,02,17.80
2010,11,09,06,03,17.10
2010,11,09,06,04,18.40
2010,11,09,06,05,19.30
2010,11,09,06,06,20.80
2010,11,09,06,07,21.00
2010,11,09,06,08,18.90
2010,11,09,06,09,18.80
2010,11,09,06,10,21.80
2010,11,09,06,11,18.80
2010,11,09,06,12,17.10
2010,11,09,06,13,20.00
2010,11,09,06,14,22.00
2010,11,09,06,15,22.50
2010,11,09,06,16,17.80
2010,11,09,06,17,22.50
2010,11,09,06,18,21.00
2010,11,09,06,19,20.90
2010,11,09,06,20,18.60
2010,11,09,06,21,21.20
2010,11,09,06,22,21.80
2010,11,09,06,23,17.70
2010,11,09,06,24,23.00
2010,11,09,06,25,22.50
2010,11,09,06,26,18.90
2010,11,09,06,27,18.90
2010,11,09,06,28,21.30
2010,11,09,06,29,17.80
2010,11,09,06,30,17.10
2010,11,09,06,31,23.10
2010,11,09,06,32,17.20
2010,11,09,06,33,8.90
2010,11,09,06,34,15.40
2010,11,09,06,35,11.10
2010,11,09,06,36,13.20
2010,11,09,06,37,15.20
2010,11,09,06,38,12.50
2010,11,09,06,39,12.00
2010,11,09,06,40,18.10
2010,11,09,06,41,15.70
2010,11,09,06,42,16.40
2010,11,09,06,43,16.90
2010,11,09,06,44,22.30
2010,11,09,06,45,18.00
2010,11,09,06,46,17.90
2010,11,09,06,47,19.50
2010,11,09,06,48,18.00
2010,11,09,06,49,26.50
2010,11,09,06,50,26.00
2010,11,09,06,51,20.50
2010,11,09,06,52,23.20
2010,11,09,06,53,19.40
2010,11,09,06,54,24.00
2010,11,09,06,55,26.10
2010,11,09,06,56,27.70
2010,11,09,06,57,29.00
2010,11,09,06,58,30.90
2010,11,09,06,59,28.40
2010,11,09,07,00,24.40
2010,11,09,07,01,15.00
2010,11,09,07,02,17.00
2010,11,09,07,03,20.50
2010,11,09,07,04,24.50
2010,11,09,07,05,28.40
2010,11,09,07,06,24.80
2010,11,09,07,07,24.40
2010,11,09,07,08,19.90
2010,11,09,07,09,17.00
2010,11,09,07,10,24.20
2010,11,09,07,11,30.70
2010,11,09,07,12,36.90
2010,11,09,07,13,23.50
2010,11,09,07,14,24.10
2010,11,09,07,15,21.10
2010,11,09,07,16,23.20
2010,11,09,07,17,25.90
2010,11,09,07,18,32.30
2010,11,09,07,19,24.20
2010,11,09,07,20,27.50
2010,11,09,07,21,23.40
2010,11,09,07,22,22.50
2010,11,09,07,23,26.40
2010,11,09,07,24,22.80
2010,11,09,07,25,28.70
2010,11,09,07,26,24.20
2010,11,09,07,27,22.50
2010,11,09,07,28,16.70
2010,11,09,07,29,19.80
2010,11,09,07,30,26.80
2010,11,09,07,31,25.80
2010,11,09,07,32,15.60
2010,11,09,07,33,22.60
2010,11,09,07,34,14.60
2010,11,09,07,35,21.70
2010,11,09,07,36,30.20
2010,11,09,07,37,31.10
2010,11,09,07,38,21.40
2010,11,09,07,39,30.90
2010,11,09,07,40,27.80
2010,11,09,07,41,23.10
2010,11,09,07,42,27.10
2010,11,09,07,43,24.20
2010,11,09,07,44,35.60
2010,11,09,07,45,20.00
2010,11,09,07,46,21.50
2010,11,09,07,47,33.30
2010,11,09,07,48,21.80
2010,11,09,07,49,19.20
2010,11,09,07,50,25.10
2010,11,09,07,51,21.30
2010,11,09,07,52,21.60
2010,11,09,07,53,14.10
2010,11,09,07,54,21.60
2010,11,09,07,55,20.10
2010,11,09,07,56,21.90
2010,11,09,07,57,13.20
2010,11,09,07,58,13.90
2010,11,09,07,59,20.50
2010,11,09,08,00,27.10
2010,11,09,08,01,17.70
2010,11,09,08,02,26.20
2010,11,09,08,03,26.50
2010,11,09,08,04,17.40
2010,11,09,08,05,19.50
2010,11,09,08,06,26.90
2010,11,09,08,07,27.40
2010,11,09,08,08,35.30
2010,11,09,08,09,24.50
2010,11,09,08,10,30.20
2010,11,09,08,11,23.60
2010,11,09,08,12,33.70
2010,11,09,08,13,25.00
2010,11,09,08,14,27.80
2010,11,09,08,15,22.30
2010,11,09,08,16,17.50
2010,11,09,08,17,18.80
2010,11,09,08,18,25.90
2010,11,09,08,19,21.90
2010,11,09,08,20,26.20
2010,11,09,08,21,27.10
2010,11,09,08,22,24.00
2010,11,09,08,23,20.20
2010,11,09,08,24,17.90
2010,11,09,08,25,27.30
2010,11,09,08,26,19.00
2010,11,09,08,27,19.90
2010,11,09,08,28,19.10
2010,11,09,08,29,17.10
2010,11,09,08,30,27.90
2010,11,09,08,31,29.40
2010,11,09,08,32,21.60
2010,11,09,08,33,21.60
2010,11,09,08,34,28.60
2010,11,09,08,35,30.70
2010,11,09,08,36,29.40
2010,11,09,08,37,31.70
2010,11,09,08,38,29.80
2010,11,09,08,39,23.00
2010,11,09,08,40,14.20
2010,11,09,08,41,27.70
2010,11,09,08,42,27.00
2010,11,09,08,43,24.40
2010,11,09,08,44,25.10
2010,11,09,08,45,26.80
2010,11,09,08,46,27.40
2010,11,09,08,47,19.30
2010,11,09,08,48,23.90
2010,11,09,08,49,32.40
2010,11,09,08,50,26.70
2010,11,09,08,51,28.10
2010,11,09,08,52,34.10
2010,11,09,08,53,29.80
2010,11,09,08,54,32.70
2010,11,09,08,55,31.80
2010,11,09,08,56,29.50
2010,11,09,08,57,32.70
2010,11,09,08,58,30.70
2010,11,09,08,59,29.70
2010,11,09,09,00,29.00
2010,11,09,09,01,24.00
2010,11,09,09,02,26.60
2010,11,09,09,03,42.20
2010,11,09,09,04,35.20
2010,11,09,09,05,25.80
2010,11,09,09,06,28.60
2010,11,09,09,07,37.00
2010,11,09,09,08,29.30
2010,11,09,09,09,33.70
2010,11,09,09,10,23.50
2010,11,09,09,11,24.90
2010,11,09,09,12,30.90
2010,11,09,09,13,38.30
2010,11,09,09,14,28.70
2010,11,09,09,15,17.60
2010,11,09,09,16,29.00
2010,11,09,09,17,33.60
2010,11,09,09,18,32.90
2010,11,09,09,19,38.10
2010,11,09,09,20,29.10
2010,11,09,09,21,25.70
2010,11,09,09,22,23.30
2010,11,09,09,23,29.30
2010,11,09,09,24,22.00
2010,11,09,09,25,16.30
2010,11,09,09,26,36.30
2010,11,09,09,27,29.10
2010,11,09,09,28,31.10
2010,11,09,09,29,34.30
2010,11,09,09,30,22.80
2010,11,09,09,31,31.00
2010,11,09,09,32,41.40
2010,11,09,09,33,30.30
2010,11,09,09,34,26.40
2010,11,09,09,35,41.00
2010,11,09,09,36,38.90
2010,11,09,09,37,41.20
2010,11,09,09,38,38.30
2010,11,09,09,39,40.60
2010,11,09,09,40,28.20
2010,11,09,09,41,30.70
2010,11,09,09,42,42.80
2010,11,09,09,43,34.90
2010,11,09,09,44,31.80
2010,11,09,09,45,42.20
2010,11,09,09,46,38.20
2010,11,09,09,47,28.70
2010,11,09,09,48,40.10
2010,11,09,09,49,44.60
2010,11,09,09,50,37.80
2010,11,09,09,51,33.00
2010,11,09,09,52,38.60
2010,11,09,09,53,40.20
2010,11,09,09,54,27.90
2010,11,09,09,55,33.30
2010,11,09,09,56,21.00
2010,11,09,09,57,22.80
2010,11,09,09,58,25.80
2010,11,09,09,59,32.20
2010,11,09,10,00,38.10
2010,11,09,10,01,31.20
2010,11,09,10,02,25.40
2010,11,09,10,03,26.10
2010,11,09,10,04,37.70
2010,11,09,10,05,34.80
2010,11,09,10,06,33.00
2010,11,09,10,07,35.20
2010,11,09,10,08,40.80
2010,11,09,10,09,36.80
2010,11,09,10,10,30.60
2010,11,09,10,11,33.10
2010,11,09,10,12,41.50
2010,11,09,10,13,48.40
2010,11,09,10,14,42.30
2010,11,09,10,15,36.30
2010,11,09,10,16,17.60
2010,11,09,10,17,32.70
2010,11,09,10,18,32.70
2010,11,09,10,19,34.40
2010,11,09,10,20,35.60
2010,11,09,10,21,33.70
2010,11,09,10,22,50.40
2010,11,09,10,23,38.90
2010,11,09,10,24,31.30
2010,11,09,10,25,28.70
2010,11,09,10,26,30.70
2010,11,09,10,27,29.80
2010,11,09,10,28,34.80
2010,11,09,10,29,44.30
2010,11,09,10,30,27.30
2010,11,09,10,31,29.70
2010,11,09,10,32,30.40
2010,11,09,10,33,35.60
2010,11,09,10,34,37.40
2010,11,09,10,35,29.50
2010,11,09,10,36,33.50
2010,11,09,10,37,35.20
2010,11,09,10,38,39.10
2010,11,09,10,39,28.20
2010,11,09,10,40,36.80
2010,11,09,10,41,39.70
2010,11,09,10,42,39.90
2010,11,09,10,43,30.60
2010,11,09,10,44,28.30
2010,11,09,10,45,36.90
2010,11,09,10,46,28.20
2010,11,09,10,47,37.60
2010,11,09,10,48,37.70
2010,11,09,10,49,37.60
2010,11,09,10,50,32.50
2010,11,09,10,51,25.40
2010,11,09,10,52,36.80
2010,11,09,10,53,33.90
2010,11,09,10,54,38.50
2010,11,09,10,55,35.20
2010,11,09,10,56,38.10
2010,11,09,10,57,33.50
2010,11,09,10,58,32.20
2010,11,09,10,59,32.90
2010,11,09,11,00,36.30
2010,11,09,11,01,34.60
2010,11,09,11,02,40.40
2010,11,09,11,03,33.40
2010,11,09,11,04,34.90
2010,11,09,11,05,28.30
2010,11,09,11,06,30.90
2010,11,09,11,07,35.40
2010,11,09,11,08,26.80
2010,11,09,11,09,29.10
2010,11,09,11,10,30.40
2010,11,09,11,11,35.30
2010,11,09,11,12,31.70
2010,11,09,11,13,27.10
2010,11,09,11,14,27.60
2010,11,09,11,15,23.30
2010,11,09,11,16,34.70
2010,11,09,11,17,41.40
2010,11,09,11,18,39.20
2010,11,09,11,19,32.90
2010,11,09,11,20,32.40
2010,11,09,11,21,40.40
2010,11,09,11,22,38.40
2010,11,09,11,23,35.90
2010,11,09,11,24,33.00
2010,11,09,11,25,26.60
2010,11,09,11,26,28.70
2010,11,09,11,27,26.00
2010,11,09,11,28,21.80
2010,11,09,11,29,25.90
2010,11,09,11,30,30.10
2010,11,09,11,31,25.30
2010,11,09,11,32,20.80
2010,11,09,11,33,23.30
2010,11,09,11,34,19.00
2010,11,09,11,35,31.50
2010,11,09,11,36,27.50
2010,11,09,11,37,27.80
2010,11,09,11,38,26.30
2010,11,09,11,39,24.90
2010,11,09,11,40,25.60
2010,11,09,11,41,27.50
2010,11,09,11,42,38.10
2010,11,09,11,43,35.30
2010,11,09,11,44,40.90
2010,11,09,11,45,36.40
2010,11,09,11,46,34.70
2010,11,09,11,47,41.50
2010,11,09,11,48,38.80
2010,11,09,11,49,41.40
2010,11,09,11,50,38.30
2010,11,09,11,51,33.60
2010,11,09,11,52,28.60
2010,11,09,11,53,33.30
2010,11,09,11,54,33.20
2010,11,09,11,55,28.50
2010,11,09,11,56,35.30
2010,11,09,11,57,29.90
2010,11,09,11,58,27.10
2010,11,09,11,59,33.60
2010,11,09,12,00,28.80
2010,11,09,12,01,31.30
2010,11,09,12,02,26.50
2010,11,09,12,03,29.20
2010,11,09,12,04,25.10
2010,11,09,12,05,32.40
2010,11,09,12,06,30.30
2010,11,09,12,07,21.20
2010,11,09,12,08,23.10
2010,11,09,12,09,31.00
2010,11,09,12,10,25.60
2010,11,09,12,11,35.20
2010,11,09,12,12,38.50
2010,11,09,12,13,31.90
2010,11,09,12,14,39.60
2010,11,09,12,15,29.20
2010,11,09,12,16,33.40
2010,11,09,12,17,30.90
2010,11,09,12,18,32.90
2010,11,09,12,19,33.10
2010,11,09,12,20,40.50
2010,11,09,12,21,41.60
2010,11,09,12,22,40.00
2010,11,09,12,23,35.60
2010,11,09,12,24,35.10
2010,11,09,12,25,32.70
2010,11,09,12,26,30.30
2010,11,09,12,27,26.60
2010,11,09,12,28,25.60
2010,11,09,12,29,34.00
2010,11,09,12,30,32.90
2010,11,09,12,31,24.40
2010,11,09,12,32,27.10
2010,11,09,12,33,26.60
2010,11,09,12,34,34.70
2010,11,09,12,35,39.80
2010,11,09,12,36,38.40
2010,11,09,12,37,35.60
2010,11,09,12,38,35.60
2010,11,09,12,39,34.40
2010,11,09,12,40,24.90
2010,11,09,12,41,33.40
2010,11,09,12,42,28.50
2010,11,09,12,43,27.40
2010,11,09,12,44,29.00
2010,11,09,12,45,21.80
2010,11,09,12,46,34.20
2010,11,09,12,47,33.60
2010,11,09,12,48,33.10
2010,11,09,12,49,27.40
2010,11,09,12,50,28.20
2010,11,09,12,51,36.50
2010,11,09,12,52,32.20
2010,11,09,12,53,28.10
2010,11,09,12,54,34.60
2010,11,09,12,55,39.30
2010,11,09,12,56,34.70
2010,11,09,12,57,35.80
2010,11,09,12,58,38.50
2010,11,09,12,59,40.40
2010,11,09,13,00,34.00
2010,11,09,13,01,31.30
2010,11,09,13,02,30.10
2010,11,09,13,03,28.10
2010,11,09,13,04,19.30
2010,11,09,13,05,24.10
2010,11,09,13,06,21.80
2010,11,09,13,07,42.20
2010,11,09,13,08,29.90
2010,11,09,13,09,36.20
2010,11,09,13,10,24.00
2010,11,09,13,11,31.10
2010,11,09,13,12,30.10
2010,11,09,13,13,34.70
2010,11,09,13,14,19.50
2010,11,09,13,15,27.40
2010,11,09,13,16,35.80
2010,11,09,13,17,29.00
2010,11,09,13,18,28.80
2010,11,09,13,19,26.10
2010,11,09,13,20,23.30
2010,11,09,13,21,32.40
2010,11,09,13,22,30.60
2010,11,09,13,23,27.90
2010,11,09,13,24,27.30
2010,11,09,13,25,31.10
2010,11,09,13,26,44.30
2010,11,09,13,27,32.50
2010,11,09,13,28,33.70
2010,11,09,13,29,34.70
2010,11,09,13,30,30.10
2010,11,09,13,31,26.20
2010,11,09,13,32,23.70
2010,11,09,13,33,33.00
2010,11,09,13,34,26.60
2010,11,09,13,35,19.20
2010,11,09,13,36,19.50
2010,11,09,13,37,21.80
2010,11,09,13,38,21.50
2010,11,09,13,39,23.70
2010,11,09,13,40,24.80
2010,11,09,13,41,24.10
2010,11,09,13,42,26.40
2010,11,09,13,43,34.80
2010,11,09,13,44,25.80
2010,11,09,13,45,33.00
2010,11,09,13,46,25.70
2010,11,09,13,47,31.30
2010,11,09,13,48,29.90
2010,11,09,13,49,24.50
2010,11,09,13,50,18.40
2010,11,09,13,51,26.70
2010,11,09,13,52,32.20
2010,11,09,13,53,31.40
2010,11,09,13,54,29.40
2010,11,09,13,55,15.90
2010,11,09,13,56,20.40
2010,11,09,13,57,30.60
2010,11,09,13,58,34.40
2010,11,09,13,59,26.90
2010,11,09,14,00,24.10
2010,11,09,14,01,37.30
2010,11,09,14,02,31.10
2010,11,09,14,03,31.80
2010,11,09,14,04,28.20
2010,11,09,14,05,19.60
2010,11,09,14,06,22.10
2010,11,09,14,07,26.20
2010,11,09,14,08,26.60
2010,11,09,14,09,38.70
2010,11,09,14,10,41.30
2010,11,09,14,11,33.90
2010,11,09,14,12,30.00
2010,11,09,14,13,28.00
2010,11,09,14,14,21.40
2010,11,09,14,15,23.70
2010,11,09,14,16,26.70
2010,11,09,14,17,21.10
2010,11,09,14,18,18.80
2010,11,09,14,19,18.70
2010,11,09,14,20,23.70
2010,11,09,14,21,24.60
2010,11,09,14,22,22.30
2010,11,09,14,23,26.60
2010,11,09,14,24,21.20
2010,11,09,14,25,25.80
2010,11,09,14,26,24.60
2010,11,09,14,27,22.00
2010,11,09,14,28,24.50
2010,11,09,14,29,22.40
2010,11,09,14,30,26.60
2010,11,09,14,31,27.50
2010,11,09,14,32,27.60
2010,11,09,14,33,30.70
2010,11,09,14,34,29.70
2010,11,09,14,35,20.30
2010,11,09,14,36,27.20
2010,11,09,14,37,32.50
2010,11,09,14,38,28.40
2010,11,09,14,39,34.60
2010,11,09,14,40,28.60
2010,11,09,14,41,32.50
2010,11,09,14,42,32.40
2010,11,09,14,43,38.10
2010,11,09,14,44,29.90
2010,11,09,14,45,24.40
2010,11,09,14,46,26.30
2010,11,09,14,47,31.00
2010,11,09,14,48,26.70
2010,11,09,14,49,26.70
2010,11,09,14,50,26.80
2010,11,09,14,51,33.00
2010,11,09,14,52,28.60
2010,11,09,14,53,32.30
2010,11,09,14,54,37.60
2010,11,09,14,55,33.70
2010,11,09,14,56,30.50
2010,11,09,14,57,28.90
2010,11,09,14,58,27.60
2010,11,09,14,59,29.30
2010,11,09,15,00,29.90
2010,11,09,15,01,24.80
2010,11,09,15,02,34.50
2010,11,09,15,03,22.80
2010,11,09,15,04,22.10
2010,11,09,15,05,27.00
2010,11,09,15,06,22.60
2010,11,09,15,07,20.40
2010,11,09,15,08,23.10
2010,11,09,15,09,23.40
2010,11,09,15,10,26.20
2010,11,09,15,11,29.00
2010,11,09,15,12,20.40
2010,11,09,15,13,22.80
2010,11,09,15,14,25.40
2010,11,09,15,15,26.50
2010,11,09,15,16,25.70
2010,11,09,15,17,28.30
2010,11,09,15,18,21.10
2010,11,09,15,19,20.90
2010,11,09,15,20,25.40
2010,11,09,15,21,23.30
2010,11,09,15,22,16.70
2010,11,09,15,23,20.50
2010,11,09,15,24,29.40
2010,11,09,15,25,23.00
2010,11,09,15,26,24.30
2010,11,09,15,27,21.80
2010,11,09,15,28,12.60
2010,11,09,15,29,17.00
2010,11,09,15,30,17.10
2010,11,09,15,31,19.00
2010,11,09,15,32,18.60
2010,11,09,15,33,21.80
2010,11,09,15,34,25.80
2010,11,09,15,35,13.40
2010,11,09,15,36,21.20
2010,11,09,15,37,16.40
2010,11,09,15,38,11.10
2010,11,09,15,39,17.90
2010,11,09,15,40,26.90
2010,11,09,15,41,24.60
2010,11,09,15,42,19.90
2010,11,09,15,43,24.00
2010,11,09,15,44,22.50
2010,11,09,15,45,27.40
2010,11,09,15,46,24.10
2010,11,09,15,47,27.10
2010,11,09,15,48,29.00
2010,11,09,15,49,24.80
2010,11,09,15,50,15.10
2010,11,09,15,51,19.20
2010,11,09,15,52,24.50
2010,11,09,15,53,23.70
2010,11,09,15,54,23.90
2010,11,09,15,55,28.70
2010,11,09,15,56,21.10
2010,11,09,15,57,26.50
2010,11,09,15,58,25.40
2010,11,09,15,59,22.10
2010,11,09,16,00,26.20
2010,11,09,16,01,17.60
2010,11,09,16,02,28.20
2010,11,09,16,03,19.70
2010,11,09,16,04,15.10
2010,11,09,16,05,21.70
2010,11,09,16,06,27.10
2010,11,09,16,07,21.40
2010,11,09,16,08,20.40
2010,11,09,16,09,17.80
2010,11,09,16,10,23.00
2010,11,09,16,11,21.00
2010,11,09,16,12,29.40
2010,11,09,16,13,23.00
2010,11,09,16,14,18.70
2010,11,09,16,15,27.40
2010,11,09,16,16,19.10
2010,11,09,16,17,18.80
2010,11,09,16,18,20.50
2010,11,09,16,19,14.30
2010,11,09,16,20,20.70
2010,11,09,16,21,15.90
2010,11,09,16,22,18.80
2010,11,09,16,23,22.10
2010,11,09,16,24,22.90
2010,11,09,16,25,18.90
2010,11,09,16,26,21.30
2010,11,09,16,27,23.30
2010,11,09,16,28,22.80
2010,11,09,16,29,27.50
2010,11,09,16,30,25.10
2010,11,09,16,31,24.10
2010,11,09,16,32,20.70
2010,11,09,16,33,31.40
2010,11,09,16,34,27.00
2010,11,09,16,35,27.20
2010,11,09,16,36,25.50
2010,11,09,16,37,22.40
2010,11,09,16,38,27.30
2010,11,09,16,39,22.20
2010,11,09,16,40,22.60
2010,11,09,16,41,16.30
2010,11,09,16,42,18.70
2010,11,09,16,43,16.20
2010,11,09,16,44,17.40
2010,11,09,16,45,19.80
2010,11,09,16,46,17.50
2010,11,09,16,47,19.20
2010,11,09,16,48,21.10
2010,11,09,16,49,19.50
2010,11,09,16,50,16.60
2010,11,09,16,51,17.80
2010,11,09,16,52,21.30
2010,11,09,16,53,21.50
2010,11,09,16,54,21.10
2010,11,09,16,55,14.40
2010,11,09,16,56,22.50
2010,11,09,16,57,18.70
2010,11,09,16,58,21.70
2010,11,09,16,59,19.30
2010,11,09,17,00,24.10
2010,11,09,17,01,21.90
2010,11,09,17,02,15.30
2010,11,09,17,03,25.60
2010,11,09,17,04,21.00
2010,11,09,17,05,27.10
2010,11,09,17,06,23.90
2010,11,09,17,07,26.10
2010,11,09,17,08,26.40
2010,11,09,17,09,24.30
2010,11,09,17,10,16.00
2010,11,09,17,11,22.30
2010,11,09,17,12,18.90
2010,11,09,17,13,16.00
2010,11,09,17,14,22.10
2010,11,09,17,15,21.30
2010,11,09,17,16,22.50
2010,11,09,17,17,20.30
2010,11,09,17,18,23.00
2010,11,09,17,19,17.00
2010,11,09,17,20,23.30
2010,11,09,17,21,20.60
2010,11,09,17,22,22.90
2010,11,09,17,23,20.60
2010,11,09,17,24,24.10
2010,11,09,17,25,19.80
2010,11,09,17,26,13.30
2010,11,09,17,27,23.60
2010,11,09,17,28,16.40
2010,11,09,17,29,25.40
2010,11,09,17,30,22.70
2010,11,09,17,31,17.90
2010,11,09,17,32,16.40
2010,11,09,17,33,18.20
2010,11,09,17,34,11.50